Regional Weather Roundup
Issued by NWS

Home | Current Version | Previous Version | Graphics & Text | Print | Product List | Glossary On
Versions: 1 2 3 4 5 6 7 8 9 10 11 12 13 14 15 16 17 18 19 20 21 22 23 24 25 26 27
000
ASUS45 KCYS 201410
RWRWY

WYOMING REGIONAL WEATHER ROUNDUP
NATIONAL WEATHER SERVICE CHEYENNE WY
700 AM MST MON NOV 20 2017

NOTE:  "FAIR" INDICATES FEW OR NO CLOUDS BELOW 12,000 FEET
WITH NO SIGNIFICANT WEATHER AND/OR OBSTRUCTIONS TO VISIBILITY.

WYZ001-201500-
YELLOWSTONE NATIONAL PARK

CITY           SKY/WX    TMP DP  RH WIND       PRES   REMARKS
LK YELLOWSTONE   N/A     19  17  92 VRB3      29.97R
W YELLOWSTONE  NOT AVBL

$$
WYZ002>013-054>058-071-098>099-201500-
NORTHERN WYOMING

CITY           SKY/WX    TMP DP  RH WIND       PRES   REMARKS
JACKSON        MOCLDY    32  21  64 S16       29.99  WCI  21
CODY           FAIR      47  14  26 W18G37    29.69R
GREYBULL       FAIR      24  20  84 S5        29.73F WCI  18
WORLAND        FAIR      23  20  88 CALM      29.75R
SHERIDAN       FAIR      52  14  22 W10       29.58F
BUFFALO        FAIR      49  14  24 SW12G25   29.61F
GILLETTE       FAIR      43  10  26 SW23      29.61S
HULETT         FAIR      43  12  28 SW16      29.62R
NEWCASTLE      FAIR      32  14  47 NE6       29.68S WCI  26

$$
WYZ014>020-022>026-101>103-201500-
CENTRAL WYOMING

CITY           SKY/WX    TMP DP  RH WIND       PRES   REMARKS
BIG PINEY      FAIR      12   9  87 W6        30.04R WCI   3
PINEDALE       CLOUDY    21  18  86 W7        30.05S WCI  13
DUBOIS         FAIR      32  18  55 N20G25    29.90S WCI  20
LANDER         FAIR      40  12  32 VRB6G29   29.79F
RIVERTON       FAIR      35  12  38 NW8       29.82R WCI  29
CASPER         FAIR      36  12  37 SW30G38   29.81F WCI  23
DOUGLAS        FAIR      44  12  27 W23G30    29.74S

$$
WYZ021-027>030-104>119-201500-
SOUTHERN WYOMING

CITY           SKY/WX    TMP DP  RH WIND       PRES   REMARKS
EVANSTON       FAIR      27  15  61 SW13      30.06R WCI  16
FORT BRIDGER   FAIR      30  18  61 W7        30.07R WCI  23
ROCK SPRINGS   FAIR      25  13  60 SW10      30.02S WCI  15
DIXON          CLOUDY    22  15  75 CALM      30.10S
RAWLINS        FLURRIES  35  10  35 SW26G35   29.93F WCI  22
SARATOGA       CLOUDY    32  18  55 S7        30.00F WCI  26
LARAMIE        FAIR      34   7  32 SW24      29.93F WCI  21
CHEYENNE       FAIR      48  -6  10 W13G32    29.83F
TORRINGTON     FAIR      51   4  14 NW17      29.70S
PINE BLUFFS    FAIR      46   0  14 W22G35    29.80R

$$




USA.gov is the U.S. government's official web portal to all federal, state and local government web resources and services.